Flag for Germany Weather past 2 weeks in Goch, North Rhine-Westphalia, Germany

Now
50 °F

Scattered clouds.


Feels Like: 45 °F
Forecast: 37 / 56 °F
Wind: 13 mph from West

Location: Niederrhein

Current Time: Apr 28, 2015 at 12:35:02 PM

Latest Report: Apr 28, 2015 at 11:50 AM


Visibility: N/A

Pressure: 29.98 "Hg

Humidity: 62%

Dew point: 37 °F

Location of GochLocation

Historic Weather in Goch — Graph

°F

Goch temperature yesterday

Maximum temperature yesterday: 55 °F (at 2:20 PM)
Minimum temperature yesterday: 45 °F (at 5:50 AM)
Average temperature yesterday: 50 °F

Past Weeks' High & Low Weather Summary

 TemperatureHumidityPressure
High75 °F (Apr 15, 3:20 PM)100% (Apr 19, 7:20 AM)30.48 "Hg (Apr 19, 7:20 AM)
Low30 °F (Apr 28, 5:50 AM)29% (Apr 15, 3:20 PM)29.68 "Hg (Apr 26, 3:50 PM)
Average54 °F63%30.11 "Hg
* Reported Apr 13 11:20 AM — Apr 28 11:20 AM, Goch, Weather by CustomWeather, © 2015

Note: Actual official high and low records may vary slightly from our data, if they occured in-between our weather recording intervals... More about our weather records

Advertising

Goch weather history for previous 24 hours

 ConditionsComfort  
Time TempWeatherWind HumidityBarometerVisibility
11:20 AM
Tue, Apr 28
50 °FPassing clouds.12 mph62%29.98 "HgN/A
10:50 AM50 °FPassing clouds.12 mph62%29.98 "HgN/A
10:20 AM48 °FPassing clouds.10 mph62%29.95 "HgN/A
9:50 AM46 °FPassing clouds.8 mph62%29.95 "HgN/A
9:20 AM45 °FPassing clouds.6 mph66%29.95 "HgN/A
8:50 AM43 °FPassing clouds.7 mph76%29.95 "HgN/A
8:20 AM39 °FSunny.3 mph87%29.95 "Hg10 mi
7:50 AM37 °FClear.No wind93%29.95 "Hg10 mi
7:20 AM34 °FClear.No wind93%29.92 "Hg10 mi
6:50 AM30 °FClear.No wind100%29.92 "Hg10 mi
6:20 AM30 °FClear.No wind100%29.92 "Hg10 mi
5:50 AM30 °FClear.No wind100%29.92 "Hg10 mi
5:20 AM32 °FClear.No wind93%29.89 "Hg10 mi
4:50 AM32 °FClear.No wind93%29.89 "Hg10 mi
11:50 PM
Mon, Apr 27
45 °FPassing clouds.5 mph61%29.86 "HgN/A
11:20 PM45 °FPassing clouds.5 mph61%29.86 "HgN/A
10:50 PM46 °FSunny.3 mph57%29.86 "Hg10 mi
10:20 PM46 °FSunny.3 mph53%29.86 "Hg10 mi
9:50 PM48 °FSunny.3 mph54%29.83 "Hg10 mi
9:20 PM48 °FSunny.5 mph54%29.83 "Hg10 mi
8:50 PM50 °FPassing clouds.6 mph50%29.83 "HgN/A
8:20 PM52 °FSunny.5 mph50%29.80 "Hg10 mi
7:50 PM52 °FPassing clouds.7 mph54%29.80 "HgN/A
7:20 PM54 °FPassing clouds.6 mph47%29.80 "HgN/A
6:50 PM54 °FPassing clouds.7 mph44%29.80 "HgN/A
6:20 PM54 °FPassing clouds.6 mph44%29.77 "HgN/A
5:50 PM54 °FPassing clouds.7 mph44%29.77 "HgN/A
5:20 PM55 °FPassing clouds.7 mph38%29.77 "HgN/A
4:50 PM55 °FPassing clouds.7 mph41%29.77 "HgN/A
4:20 PM55 °FPassing clouds.6 mph41%29.77 "HgN/A
3:50 PM55 °FPassing clouds.9 mph41%29.77 "HgN/A
3:20 PM55 °FPassing clouds.8 mph41%29.77 "HgN/A
2:50 PM55 °FSunny.8 mph44%29.77 "Hg10 mi
2:20 PM55 °FPassing clouds.9 mph38%29.77 "HgN/A
1:50 PM54 °FPassing clouds.9 mph47%29.77 "HgN/A
1:20 PM54 °FPassing clouds.9 mph44%29.77 "HgN/A
12:50 PM54 °FPassing clouds.8 mph44%29.77 "HgN/A
12:20 PM52 °FScattered clouds.12 mph50%29.77 "HgN/A
Weather by CustomWeather, © 2015

See weather overviewHow to use our weather pages